When you browse on this site, cookies collect data to enhance your experience and personalize the content and advertising you see.
Visit our Privacy Policy to learn more. By continuing to use the site, you agree to this use of cookies and data.
  • In Belgien
  • Länderverzeichnis
  • Für 7 Tage
  • Wassertemperatur
  • Wetterkarte
  • Widgets
  • user-avatar
    Anmelden

    Stündliche Wetter Krivaya Gora

    Heute, 5 Juni, Freitag

    Zeit Temperatur Niederschläge Wind Luftdruck Luftfeuchtigkeit
    00:00 +10°C° 0.1 mm 2 m/S 739 mmHg 97%
    01:00 +10°C° 0.1 mm 2 m/S 739 mmHg 97%
    02:00 +10°C° 0 mm 3 m/S 739 mmHg 98%
    03:00 +11°C° 0.1 mm 3 m/S 739 mmHg 97%
    04:00 +11°C° 0.1 mm 3 m/S 739 mmHg 96%
    05:00 +11°C° 0.1 mm 3 m/S 739 mmHg 96%
    06:00 +12°C° 0 mm 4 m/S 740 mmHg 90%
    07:00 +13°C° 0 mm 4 m/S 740 mmHg 84%
    08:00 +15°C° 0 mm 4 m/S 741 mmHg 79%
    09:00 +17°C° 0.2 mm 4 m/S 741 mmHg 73%
    10:00 +18°C° 0.2 mm 4 m/S 741 mmHg 67%
    11:00 +19°C° 0.2 mm 4 m/S 741 mmHg 61%
    12:00 +19°C° 0.4 mm 4 m/S 741 mmHg 61%
    13:00 +19°C° 0.4 mm 4 m/S 741 mmHg 61%
    14:00 +19°C° 0.4 mm 4 m/S 742 mmHg 61%
    15:00 +19°C° 0.1 mm 4 m/S 742 mmHg 62%
    16:00 +19°C° 0.1 mm 3 m/S 742 mmHg 63%
    17:00 +19°C° 0.1 mm 3 m/S 742 mmHg 65%
    18:00 +17°C° 0.1 mm 2 m/S 742 mmHg 73%
    19:00 +16°C° 0.1 mm 2 m/S 742 mmHg 82%
    20:00 +14°C° 0.1 mm 1 m/S 742 mmHg 90%
    21:00 +14°C° 0 mm 1 m/S 742 mmHg 92%
    22:00 +13°C° 0 mm 1 m/S 742 mmHg 95%
    23:00 +12°C° 0 mm 1 m/S 742 mmHg 97%

    Morgen, 6 Juni, Samstag

    Zeit Temperatur Niederschläge Wind Luftdruck Luftfeuchtigkeit
    00:00 +11°C° 0 mm 1 m/S 743 mmHg 97%
    01:00 +11°C° 0 mm 1 m/S 743 mmHg 98%
    02:00 +11°C° 0 mm 1 m/S 743 mmHg 98%
    03:00 +10°C° 0 mm 2 m/S 743 mmHg 96%
    04:00 +10°C° 0 mm 2 m/S 743 mmHg 95%
    05:00 +12°C° 0 mm 2 m/S 743 mmHg 93%
    06:00 +12°C° 0 mm 3 m/S 743 mmHg 86%
    07:00 +14°C° 0 mm 3 m/S 744 mmHg 78%
    08:00 +17°C° 0 mm 3 m/S 744 mmHg 71%
    09:00 +18°C° 0 mm 3 m/S 744 mmHg 67%
    10:00 +19°C° 0 mm 3 m/S 744 mmHg 62%
    11:00 +20°C° 0 mm 3 m/S 744 mmHg 58%
    12:00 +21°C° 0 mm 3 m/S 744 mmHg 56%
    13:00 +22°C° 0 mm 4 m/S 744 mmHg 53%
    14:00 +23°C° 0 mm 4 m/S 744 mmHg 51%
    15:00 +22°C° 0.1 mm 4 m/S 743 mmHg 56%
    16:00 +22°C° 0.1 mm 4 m/S 743 mmHg 62%
    17:00 +22°C° 0.1 mm 3 m/S 743 mmHg 67%
    18:00 +20°C° 0.5 mm 3 m/S 743 mmHg 77%
    19:00 +19°C° 0.5 mm 3 m/S 744 mmHg 86%
    20:00 +17°C° 0.5 mm 2 m/S 744 mmHg 96%
    21:00 +17°C° 0.1 mm 2 m/S 744 mmHg 96%
    22:00 +16°C° 0.1 mm 2 m/S 744 mmHg 97%
    23:00 +16°C° 0.1 mm 2 m/S 744 mmHg 98%

    übermorgen, 7 Juni, Sonntag

    Zeit Temperatur Niederschläge Wind Luftdruck Luftfeuchtigkeit
    00:00 +15°C° 0 mm 1 m/S 745 mmHg 98%
    01:00 +15°C° 0 mm 1 m/S 745 mmHg 98%
    02:00 +15°C° 0 mm 1 m/S 746 mmHg 98%
    03:00 +15°C° 0 mm 1 m/S 746 mmHg 97%
    04:00 +15°C° 0 mm 1 m/S 747 mmHg 97%
    05:00 +16°C° 0 mm 1 m/S 747 mmHg 96%
    06:00 +18°C° 0 mm 1 m/S 748 mmHg 90%
    07:00 +20°C° 0 mm 1 m/S 749 mmHg 83%
    08:00 +21°C° 0 mm 1 m/S 749 mmHg 77%
    09:00 +23°C° 0 mm 1 m/S 749 mmHg 67%
    10:00 +24°C° 0 mm 1 m/S 750 mmHg 58%
    11:00 +26°C° 0 mm 1 m/S 750 mmHg 48%
    12:00 +26°C° 0 mm 1 m/S 750 mmHg 46%
    13:00 +27°C° 0 mm 1 m/S 750 mmHg 43%
    14:00 +27°C° 0 mm 1 m/S 750 mmHg 40%
    15:00 +27°C° 0 mm 1 m/S 750 mmHg 42%
    16:00 +27°C° 0 mm 1 m/S 750 mmHg 45%
    17:00 +24°C° 0 mm 0 m/S 750 mmHg 47%
    18:00 +22°C° 0 mm 0 m/S 750 mmHg 55%
    19:00 +22°C° 0 mm 1 m/S 750 mmHg 64%
    20:00 +20°C° 0 mm 1 m/S 750 mmHg 72%
    21:00 +19°C° 0 mm 1 m/S 750 mmHg 77%
    22:00 +18°C° 0 mm 1 m/S 750 mmHg 81%
    23:00 +16°C° 0 mm 1 m/S 750 mmHg 86%

    8 Juni, Montag

    Zeit Temperatur Niederschläge Wind Luftdruck Luftfeuchtigkeit
    00:00 +16°C° 0 mm 1 m/S 751 mmHg 89%
    01:00 +16°C° 0 mm 1 m/S 751 mmHg 92%
    02:00 +15°C° 0 mm 1 m/S 751 mmHg 95%
    03:00 +16°C° 0 mm 1 m/S 751 mmHg 92%
    04:00 +18°C° 0 mm 1 m/S 751 mmHg 89%
    05:00 +19°C° 0 mm 1 m/S 751 mmHg 87%
    06:00 +19°C° 0 mm 2 m/S 751 mmHg 80%
    07:00 +21°C° 0 mm 2 m/S 751 mmHg 74%
    08:00 +24°C° 0 mm 2 m/S 751 mmHg 68%
    09:00 +25°C° 0 mm 2 m/S 751 mmHg 63%
    10:00 +27°C° 0 mm 2 m/S 751 mmHg 57%
    11:00 +28°C° 0 mm 2 m/S 751 mmHg 52%
    12:00 +28°C° 0 mm 2 m/S 751 mmHg 51%
    13:00 +29°C° 0 mm 2 m/S 750 mmHg 49%
    14:00 +29°C° 0 mm 2 m/S 750 mmHg 48%
    15:00 +29°C° 0 mm 2 m/S 750 mmHg 52%
    16:00 +28°C° 0 mm 3 m/S 750 mmHg 55%
    17:00 +28°C° 0 mm 3 m/S 750 mmHg 59%
    18:00 +26°C° 0 mm 3 m/S 750 mmHg 68%
    19:00 +24°C° 0 mm 2 m/S 750 mmHg 76%
    20:00 +23°C° 0 mm 2 m/S 750 mmHg 85%
    21:00 +21°C° 0 mm 2 m/S 750 mmHg 87%
    22:00 +20°C° 0 mm 2 m/S 750 mmHg 90%
    23:00 +19°C° 0 mm 2 m/S 751 mmHg 92%

    9 Juni, Dienstag

    Zeit Temperatur Niederschläge Wind Luftdruck Luftfeuchtigkeit
    00:00 +19°C° 0 mm 2 m/S 751 mmHg 93%
    01:00 +18°C° 0 mm 2 m/S 751 mmHg 94%
    02:00 +18°C° 0 mm 2 m/S 751 mmHg 95%
    03:00 +18°C° 0 mm 2 m/S 751 mmHg 92%
    04:00 +19°C° 0 mm 2 m/S 751 mmHg 89%
    05:00 +19°C° 0 mm 3 m/S 751 mmHg 86%
    06:00 +21°C° 0 mm 3 m/S 751 mmHg 79%
    07:00 +22°C° 0 mm 3 m/S 752 mmHg 72%
    08:00 +25°C° 0 mm 3 m/S 752 mmHg 65%
    09:00 +26°C° 0 mm 3 m/S 752 mmHg 61%
    10:00 +27°C° 0 mm 4 m/S 752 mmHg 57%
    11:00 +28°C° 0 mm 4 m/S 752 mmHg 54%
    12:00 +28°C° 0 mm 4 m/S 752 mmHg 53%
    13:00 +29°C° 0 mm 4 m/S 751 mmHg 52%
    14:00 +29°C° 0 mm 4 m/S 751 mmHg 52%
    15:00 +28°C° 0 mm 4 m/S 751 mmHg 53%
    16:00 +28°C° 0 mm 4 m/S 751 mmHg 54%
    17:00 +28°C° 0 mm 3 m/S 751 mmHg 55%
    18:00 +26°C° 0 mm 3 m/S 751 mmHg 63%
    19:00 +24°C° 0 mm 2 m/S 751 mmHg 71%
    20:00 +21°C° 0 mm 2 m/S 751 mmHg 80%
    21:00 +20°C° 0 mm 2 m/S 751 mmHg 82%
    22:00 +19°C° 0 mm 2 m/S 752 mmHg 85%
    23:00 +18°C° 0 mm 2 m/S 752 mmHg 87%

    10 Juni, Mittwoch

    Zeit Temperatur Niederschläge Wind Luftdruck Luftfeuchtigkeit
    00:00 +18°C° 0 mm 2 m/S 752 mmHg 87%
    01:00 +17°C° 0 mm 2 m/S 752 mmHg 88%
    02:00 +16°C° 0 mm 1 m/S 752 mmHg 88%
    03:00 +18°C° 0 mm 1 m/S 752 mmHg 86%
    04:00 +19°C° 0 mm 1 m/S 752 mmHg 83%
    05:00 +19°C° 0 mm 1 m/S 752 mmHg 81%
    06:00 +20°C° 0 mm 2 m/S 752 mmHg 74%
    07:00 +23°C° 0 mm 2 m/S 752 mmHg 67%
    08:00 +25°C° 0 mm 3 m/S 752 mmHg 60%
    09:00 +26°C° 0 mm 3 m/S 752 mmHg 55%
    10:00 +27°C° 0 mm 3 m/S 752 mmHg 50%
    11:00 +28°C° 0 mm 3 m/S 752 mmHg 45%
    12:00 +29°C° 0 mm 3 m/S 752 mmHg 44%
    13:00 +29°C° 0 mm 3 m/S 751 mmHg 44%
    14:00 +29°C° 0 mm 3 m/S 751 mmHg 43%
    15:00 +29°C° 0 mm 3 m/S 751 mmHg 48%
    16:00 +28°C° 0 mm 3 m/S 751 mmHg 53%
    17:00 +27°C° 0 mm 2 m/S 751 mmHg 58%
    18:00 +25°C° 0.1 mm 2 m/S 751 mmHg 66%
    19:00 +24°C° 0.1 mm 2 m/S 751 mmHg 73%
    20:00 +21°C° 0.1 mm 2 m/S 751 mmHg 81%
    21:00 +20°C° 0 mm 2 m/S 751 mmHg 83%
    22:00 +20°C° 0 mm 1 m/S 751 mmHg 86%
    23:00 +19°C° 0 mm 1 m/S 751 mmHg 88%
    Mehr zeigen